When you browse on this site, cookies collect data to enhance your experience and personalize the content and advertising you see.
Visit our Privacy Policy to learn more. By continuing to use the site, you agree to this use of cookies and data.
  • En España
  • Lista de países
  • Para 7 días
  • Temperatura del agua
  • El tiempo en el mapa
  • Informadores
  • user-avatar
    Iniciar sesión

    Tiempo cada hora Satif

    Hoy, 24 Agosto, Sábado

    Tiempo Temperatura Precipitaciones Viento Presión Humedad
    00:00 +23°C° 0.2 mm 2 mps 674 mmHg 76%
    01:00 +23°C° 0.1 mm 2 mps 674 mmHg 76%
    02:00 +23°C° 0.1 mm 1 mps 674 mmHg 76%
    03:00 +23°C° 0.1 mm 1 mps 674 mmHg 76%
    04:00 +23°C° 0.1 mm 1 mps 674 mmHg 76%
    05:00 +23°C° 0.1 mm 1 mps 674 mmHg 75%
    06:00 +23°C° 0.1 mm 1 mps 674 mmHg 74%
    07:00 +24°C° 0.4 mm 2 mps 675 mmHg 66%
    08:00 +26°C° 0.4 mm 3 mps 675 mmHg 57%
    09:00 +28°C° 0.4 mm 5 mps 676 mmHg 49%
    10:00 +28°C° 0.2 mm 5 mps 676 mmHg 47%
    11:00 +29°C° 0.2 mm 5 mps 676 mmHg 45%
    12:00 +29°C° 0.2 mm 6 mps 675 mmHg 43%
    13:00 +29°C° 0.1 mm 5 mps 675 mmHg 43%
    14:00 +29°C° 0.1 mm 4 mps 675 mmHg 42%
    15:00 +29°C° 0.1 mm 4 mps 675 mmHg 42%
    16:00 +28°C° 0.3 mm 4 mps 674 mmHg 49%
    17:00 +26°C° 0.3 mm 5 mps 674 mmHg 56%
    18:00 +25°C° 0.3 mm 5 mps 673 mmHg 64%
    19:00 +23°C° 0.2 mm 4 mps 674 mmHg 66%
    20:00 +23°C° 0.2 mm 4 mps 674 mmHg 69%
    21:00 +22°C° 0.2 mm 3 mps 674 mmHg 72%
    22:00 +22°C° 0 mm 3 mps 674 mmHg 74%
    23:00 +23°C° 0 mm 2 mps 673 mmHg 76%

    Mañana, 25 Agosto, Domingo

    Tiempo Temperatura Precipitaciones Viento Presión Humedad
    00:00 +21°C° 0 mm 2 mps 673 mmHg 78%
    01:00 +21°C° 0 mm 2 mps 673 mmHg 79%
    02:00 +21°C° 0 mm 2 mps 673 mmHg 80%
    03:00 +22°C° 0 mm 1 mps 673 mmHg 81%
    04:00 +22°C° 0 mm 1 mps 673 mmHg 79%
    05:00 +22°C° 0 mm 1 mps 673 mmHg 77%
    06:00 +22°C° 0 mm 1 mps 673 mmHg 75%
    07:00 +23°C° 0 mm 1 mps 674 mmHg 66%
    08:00 +25°C° 0 mm 2 mps 674 mmHg 58%
    09:00 +26°C° 0 mm 2 mps 675 mmHg 49%
    10:00 +28°C° 0 mm 2 mps 675 mmHg 44%
    11:00 +29°C° 0 mm 3 mps 675 mmHg 39%
    12:00 +30°C° 0 mm 4 mps 675 mmHg 34%
    13:00 +30°C° 0 mm 4 mps 674 mmHg 33%
    14:00 +30°C° 0 mm 4 mps 674 mmHg 32%
    15:00 +30°C° 0 mm 4 mps 674 mmHg 31%
    16:00 +30°C° 0 mm 3 mps 674 mmHg 35%
    17:00 +29°C° 0 mm 3 mps 674 mmHg 39%
    18:00 +28°C° 0 mm 2 mps 673 mmHg 43%
    19:00 +27°C° 0 mm 3 mps 673 mmHg 49%
    20:00 +26°C° 0 mm 3 mps 674 mmHg 55%
    21:00 +26°C° 0 mm 3 mps 674 mmHg 61%
    22:00 +25°C° 0 mm 2 mps 674 mmHg 63%
    23:00 +25°C° 0 mm 2 mps 673 mmHg 64%

    Pasado mañana, 26 Agosto, Lunes

    Tiempo Temperatura Precipitaciones Viento Presión Humedad
    00:00 +24°C° 0 mm 1 mps 673 mmHg 66%
    01:00 +24°C° 0 mm 1 mps 673 mmHg 66%
    02:00 +24°C° 0 mm 1 mps 672 mmHg 65%
    03:00 +24°C° 0 mm 1 mps 672 mmHg 65%
    04:00 +24°C° 0 mm 2 mps 673 mmHg 62%
    05:00 +24°C° 0 mm 2 mps 673 mmHg 59%
    06:00 +24°C° 0 mm 2 mps 673 mmHg 56%
    07:00 +26°C° 0 mm 4 mps 674 mmHg 49%
    08:00 +28°C° 0 mm 6 mps 674 mmHg 41%
    09:00 +29°C° 0 mm 8 mps 675 mmHg 34%
    10:00 +30°C° 0 mm 7 mps 675 mmHg 31%
    11:00 +32°C° 0 mm 7 mps 675 mmHg 28%
    12:00 +33°C° 0 mm 7 mps 675 mmHg 26%
    13:00 +33°C° 0 mm 6 mps 675 mmHg 26%
    14:00 +33°C° 0 mm 5 mps 675 mmHg 26%
    15:00 +33°C° 0 mm 4 mps 674 mmHg 27%
    16:00 +33°C° 0 mm 3 mps 674 mmHg 29%
    17:00 +31°C° 0 mm 2 mps 674 mmHg 32%
    18:00 +30°C° 0 mm 1 mps 674 mmHg 34%
    19:00 +30°C° 0 mm 2 mps 674 mmHg 36%
    20:00 +29°C° 0 mm 2 mps 674 mmHg 38%
    21:00 +28°C° 0 mm 2 mps 674 mmHg 40%
    22:00 +28°C° 0 mm 2 mps 674 mmHg 40%
    23:00 +27°C° 0 mm 2 mps 674 mmHg 41%

    27 Agosto, Martes

    Tiempo Temperatura Precipitaciones Viento Presión Humedad
    00:00 +27°C° 0 mm 1 mps 674 mmHg 41%
    01:00 +27°C° 0 mm 2 mps 674 mmHg 41%
    02:00 +26°C° 0 mm 2 mps 674 mmHg 41%
    03:00 +26°C° 0 mm 2 mps 674 mmHg 41%
    04:00 +26°C° 0 mm 2 mps 674 mmHg 45%
    05:00 +25°C° 0 mm 2 mps 674 mmHg 48%
    06:00 +25°C° 0 mm 2 mps 675 mmHg 52%
    07:00 +26°C° 0 mm 2 mps 675 mmHg 48%
    08:00 +27°C° 0 mm 2 mps 675 mmHg 44%
    09:00 +28°C° 0 mm 3 mps 676 mmHg 40%
    10:00 +29°C° 0 mm 3 mps 676 mmHg 37%
    11:00 +30°C° 0 mm 4 mps 676 mmHg 34%
    12:00 +32°C° 0 mm 5 mps 676 mmHg 31%
    13:00 +32°C° 0 mm 6 mps 675 mmHg 30%
    14:00 +32°C° 0 mm 6 mps 675 mmHg 29%
    15:00 +32°C° 0 mm 7 mps 674 mmHg 28%
    16:00 +32°C° 0 mm 6 mps 674 mmHg 30%
    17:00 +30°C° 0 mm 6 mps 674 mmHg 31%
    18:00 +30°C° 0 mm 5 mps 674 mmHg 33%
    19:00 +29°C° 0 mm 5 mps 674 mmHg 36%
    20:00 +28°C° 0 mm 5 mps 674 mmHg 38%
    21:00 +27°C° 0 mm 5 mps 674 mmHg 40%
    22:00 +26°C° 0 mm 5 mps 674 mmHg 41%
    23:00 +26°C° 0 mm 4 mps 674 mmHg 43%

    28 Agosto, Miércoles

    Tiempo Temperatura Precipitaciones Viento Presión Humedad
    00:00 +26°C° 0 mm 4 mps 674 mmHg 44%
    01:00 +26°C° 0 mm 3 mps 674 mmHg 44%
    02:00 +25°C° 0 mm 3 mps 674 mmHg 44%
    03:00 +25°C° 0 mm 3 mps 673 mmHg 45%
    04:00 +25°C° 0 mm 3 mps 674 mmHg 46%
    05:00 +25°C° 0 mm 2 mps 674 mmHg 48%
    06:00 +25°C° 0 mm 2 mps 674 mmHg 49%
    07:00 +26°C° 0 mm 2 mps 674 mmHg 44%
    08:00 +27°C° 0 mm 3 mps 675 mmHg 39%
    09:00 +29°C° 0 mm 4 mps 675 mmHg 35%
    10:00 +29°C° 0.1 mm 4 mps 675 mmHg 35%
    11:00 +29°C° 0.1 mm 5 mps 675 mmHg 35%
    12:00 +29°C° 0.1 mm 6 mps 675 mmHg 35%
    13:00 +29°C° 0 mm 6 mps 675 mmHg 34%
    14:00 +30°C° 0 mm 6 mps 675 mmHg 33%
    15:00 +30°C° 0 mm 7 mps 675 mmHg 31%
    16:00 +29°C° 0 mm 5 mps 674 mmHg 33%
    17:00 +29°C° 0 mm 4 mps 674 mmHg 35%
    18:00 +28°C° 0 mm 3 mps 674 mmHg 37%
    19:00 +27°C° 0 mm 3 mps 674 mmHg 42%
    20:00 +26°C° 0 mm 3 mps 674 mmHg 47%
    21:00 +24°C° 0 mm 2 mps 674 mmHg 52%
    22:00 +24°C° 0 mm 2 mps 674 mmHg 54%
    23:00 +23°C° 0 mm 1 mps 673 mmHg 56%

    29 Agosto, Jueves

    Tiempo Temperatura Precipitaciones Viento Presión Humedad
    00:00 +23°C° 0 mm 1 mps 673 mmHg 58%
    01:00 +22°C° 0 mm 1 mps 673 mmHg 59%
    02:00 +20°C° 0 mm 0 mps 673 mmHg 59%
    03:00 +20°C° 0 mm 0 mps 672 mmHg 60%
    04:00 +20°C° 0 mm 0 mps 673 mmHg 58%
    05:00 +22°C° 0 mm 1 mps 673 mmHg 56%
    06:00 +23°C° 0 mm 1 mps 673 mmHg 54%
    07:00 +24°C° 0 mm 1 mps 674 mmHg 49%
    08:00 +25°C° 0 mm 1 mps 674 mmHg 44%
    09:00 +26°C° 0 mm 1 mps 675 mmHg 39%
    10:00 +27°C° 0 mm 1 mps 675 mmHg 36%
    11:00 +28°C° 0 mm 2 mps 675 mmHg 32%
    12:00 +29°C° 0 mm 2 mps 675 mmHg 29%
    13:00 +29°C° 0 mm 2 mps 675 mmHg 29%
    14:00 +30°C° 0 mm 3 mps 675 mmHg 29%
    15:00 +30°C° 0 mm 4 mps 674 mmHg 29%
    16:00 +29°C° 0 mm 4 mps 674 mmHg 34%
    17:00 +27°C° 0 mm 4 mps 674 mmHg 39%
    18:00 +26°C° 0 mm 4 mps 673 mmHg 44%
    19:00 +25°C° 0 mm 3 mps 673 mmHg 48%
    20:00 +24°C° 0 mm 3 mps 674 mmHg 53%
    21:00 +24°C° 0 mm 2 mps 674 mmHg 57%
    22:00 +23°C° 0 mm 2 mps 673 mmHg 59%
    23:00 +23°C° 0 mm 2 mps 673 mmHg 62%
    Mostrar más